Regional Weather Roundup
Issued by NWS

Home | Current Version | Previous Version | Text Only | Print | Product List | Glossary On
Versions: 1 2 3 4 5 6 7 8 9 10 11 12 13 14 15 16 17 18 19 20 21 22 23 24 25 26 27 28 29 30 31 32 33 34 35 36 37 38 39 40 41 42 43 44 45 46 47 48 49 50
000
ASUS45 KBOI 150210
RWRID
WEATHER ROUNDUP FOR IDAHO
NATIONAL WEATHER SERVICE BOISE ID
800 PM MDT SUN SEP 14 2014

NOTE: "FAIR" INDICATES FEW OR NO CLOUDS BELOW 12000 FEET
WITH NO SIGNIFICANT WEATHER AND/OR OBSTRUCTIONS TO VISIBILITY

IDZ012-014-150300-
SOUTHWEST IDAHO


CITY           SKY/WX    TMP DP  RH WIND       PRES   REMARKS
BOISE          CLEAR     77  38  24 CALM      29.91S
CALDWELL       CLEAR     75  41  29 W5        29.92S
MOUNTAIN HOME  CLEAR     80  35  19 NW12      29.91S
$$

IDZ016-017-150300-
SOUTHCENTRAL IDAHO


CITY           SKY/WX    TMP DP  RH WIND       PRES   REMARKS
BURLEY         CLEAR     67  46  47 SE3       29.98S
JEROME         CLEAR     69  37  30 E5        29.98S
TWIN FALLS     PTCLDY    67  44  43 SE7       29.98F
$$

IDZ019>023-150300-
SOUTHEAST IDAHO


CITY           SKY/WX    TMP DP  RH WIND       PRES   REMARKS
IDAHO FALLS    CLEAR     73  32  22 S5        30.03S
POCATELLO      CLEAR     74  27  17 S9        30.02R
REXBURG        CLEAR     69  29  22 S6        30.04R
$$

IDZ006-010-011-018-031-032-150300-
CENTRAL IDAHO MOUNTAINS


CITY           SKY/WX    TMP DP  RH WIND       PRES   REMARKS
MCCALL         CLEAR     71  24  17 NW5       30.04S
HAILEY         PTCLDY    73  34  23 W6        30.06S
STANLEY          N/A     66  24  20 SW6       30.14R
SALMON         CLEAR     64  37  36 S5        29.96R
CHALLIS        CLEAR     67  23  19 W9        30.01S
$$

IDZ002-004-006-007-026-150300-
NORTHERN IDAHO


CITY           SKY/WX    TMP DP  RH WIND       PRES   REMARKS
LEWISTON       CLEAR     80  29  15 CALM      29.91F
LOWELL           N/A     59  49  69 N3        29.94R
COEUR D`ALENE  CLEAR     68  36  30 NE7       29.97S
MULLAN PASS    CLEAR     58  28  32 NW3       30.14S
$$



USA.gov is the U.S. government's official web portal to all federal, state and local government web resources and services.